• MPC Preparation (Info)

  • MPEC 2022-P47 : 2022 OQ6

    The following Minor Planet Electronic Circular may be linked-to from your own Web pages, but must not otherwise be redistributed electronically.

    A form allowing access to any MPEC is at the bottom of this page.


    Read MPEC 2022-P46 Read MPEC 2022-P48


    M.P.E.C. 2022-P47                                Issued 2022 August 3, 13:08 UT
    
         The Minor Planet Electronic Circulars contain information on unusual
             minor planets and routine data on comets.  They are published
        on behalf of Division F of the International Astronomical Union by the
              Minor Planet Center, Smithsonian Astrophysical Observatory,
                              Cambridge, MA 02138, U.S.A.
    
                 Prepared using the Tamkin Foundation Computer Network
    
                                  MPC@CFA.HARVARD.EDU
                URL https://www.minorplanetcenter.net/    ISSN 1523-6714
    
                                    2022 OQ6                                 
    
    
    Observations:
         K22O06Q* C2022 07 25.49293522 41 42.963-45 26 17.68         20.52wUEP047F52
         K22O06Q  C2022 07 25.50180222 41 40.186-45 26 13.70         20.80wUEP047F52
         K22O06Q  C2022 07 25.51069922 41 37.419-45 26 09.43         20.36wUEP047F52
         K22O06Q  C2022 07 25.51961622 41 34.649-45 26 05.45         20.60wUEP047F52
         K22O06Q ^C2022 07 27.50903922 31 42.247-45 07 45.80         20.51GVEP047568
         K22O06Q ^C2022 07 27.51001922 31 41.942-45 07 45.18         20.55GVEP047568
         K22O06Q ^C2022 07 27.51099922 31 41.637-45 07 44.88         20.56GVEP047568
         K22O06Q ^C2022 07 27.51198522 31 41.332-45 07 44.13         20.55GVEP047568
         K22O06Q ^C2022 07 29.49804122 21 55.244-44 44 47.70         20.52GVEP047568
         K22O06Q ^C2022 07 29.49903422 21 54.943-44 44 46.94         20.50GVEP047568
         K22O06Q ^C2022 07 29.50005722 21 54.632-44 44 46.17         20.52GVEP047568
         K22O06Q ^C2022 08 03.52076121 58 10.419-43 27 04.47         20.56GVEP047568
         K22O06Q ^C2022 08 03.52173621 58 10.144-43 27 03.38         20.58GVEP047568
         K22O06Q ^C2022 08 03.52271921 58 09.859-43 27 02.26         20.59GVEP047568
    
    Observer details:
    568 Mauna Kea.  Observers R. Wainscoat, A. Acohido, T. Burdullis, C.
        Cunningham, H. Flewelling, L. Wells.  Measurers R. Weryk, R. Wainscoat.
        3.6-m Canada-France-Hawaii Telescope + CCD.
    F52 Pan-STARRS 2, Haleakala.  Observers J. Bulger, T. Lowe, A. Schultz, I.
        Smith.  Measurers K. Chambers, S. Chastel, T. de Boer, J. Fairlamb, H.
        Gao, M. Huber, C.-C. Lin, E. Magnier, Y. Ramanjooloo, R. Wainscoat, R.
        Weryk.  1.8-m Ritchey-Chretien + CCD.
    
    Orbital elements:
    2022 OQ6                                                 Earth MOID = 0.1388 AU
    Epoch 2022 Aug. 9.0 TT = JDT 2459800.5                  Veres                   
    M  82.68309              (2000.0)            P               Q                  
    n   0.68090757     Peri.  203.18779     -0.98133755     +0.18516288             
    a   1.2796090      Node   347.15409     -0.11843900     -0.79456026             
    e   0.3737124      Incl.   13.49366     -0.15148866     -0.57826353             
    P   1.45           H   21.11          G   0.15           U   6                  
    Residuals in seconds of arc
    220725 F52  0.0   0.0     220727 568  0.0   0.0     220729 568  0.0   0.0
    220725 F52  0.1-  0.0     220727 568  0.0   0.3-    220803 568  0.0   0.0
    220725 F52  0.1-  0.2+    220727 568  0.0   0.1-    220803 568  0.0   0.0
    220725 F52  0.0   0.0     220729 568  0.0   0.0     220803 568  0.0   0.0
    220727 568  0.0   0.0     220729 568  0.0   0.0
    
    Ephemeris:
    2022 OQ6                 a,e,i = 1.28, 0.37, 13                  q = 0.8014
    Date    TT    R. A. (2000) Decl.     Delta      r    Elong.  Phase     V
    2022 07 04    00 14 20.8 -44 48 46   0.3435  1.1900   112.2    52.3    21.1
    ...
    2022 07 19    23 13 27.8 -45 54 12   0.3500  1.2779   132.2    36.1    20.8
    ...
    2022 07 27    22 34 13.6 -45 12 32   0.3628  1.3226   142.7    27.8    20.8
    ...
    2022 08 02    22 05 10.6 -43 53 06   0.3793  1.3549   149.3    22.5    20.7
    2022 08 03    22 00 33.4 -43 36 02   0.3826  1.3602   150.2    21.8    20.7
    2022 08 04    21 56 01.5 -43 17 59   0.3862  1.3655   151.0    21.1    20.8
    ...
    2022 08 10    21 31 06.1 -41 12 05   0.4117  1.3963   154.4    18.3    20.9
    ...
    2022 08 18    21 04 55.4 -37 55 06   0.4567  1.4357   153.5    18.3    21.1
    ...
    2022 09 02    20 37 06.3 -31 41 24   0.5723  1.5037   142.4    24.2    21.9
    
    M. P. C. Staff               (C) Copyright 2022 MPC           M.P.E.C. 2022-P47
    


    Read MPEC 2022-P46 Read MPEC 2022-P48


    MPEC number:

    Enter an MPEC number in one of the following forms:

    • 1997-B01 (the full form)
    • J97B01 (the packed version of the full form)
    • B01 (the abbreviated form)